Location: Blackfoot
(53.5367°N, 112.7800°W)
Time: 02:06:05
(UTC-06:00)

Amateur Radio Satellites - All Passes

Search period start: 17 April 2014 01:36
Search period end: 18 April 2014 01:36
Location: Blackfoot, 53.5367°N, 112.7800°W

Satellite Date Start Highest point End Downlink Frequencies (MHz)
Time Altitude Azimuth
Sapphire 17 Apr 01:37:44 01:42:01 24° 111° (ESE) 01:46:20 437.095 MHz 1200 baud AX-25 AFSK
Oscar 19 17 Apr 01:58:04 02:01:21 17° 86° (E) 02:04:38 437.125 CW, 437.150 USB
Oscar 16 17 Apr 02:05:30 02:09:18 20° 89° (E) 02:13:05 437.025 USB, Beacon 2401.1428
UOSAT-12 17 Apr 02:14:16 02:18:52 49° 35° (NE) 02:23:28 437.025 FM, 437.400 FM
PCSat 17 Apr 02:21:39 02:26:51 50° 120° (ESE) 02:32:06 145.825 MHz
AO-Echo 17 Apr 02:23:28 02:24:56 11° 82° (E) 02:26:24 ?
OPAL 17 Apr 02:30:44 02:35:40 58° 65° (ENE) 02:40:43 ?
Uribyol 2 17 Apr 02:35:43 02:39:28 20° 89° (E) 02:43:12 436.500 FM
SO-50 17 Apr 02:57:52 03:00:12 14° 249° (WSW) 03:02:32 436.795 FM
AO-27 17 Apr 03:13:54 03:18:42 37° 96° (E) 03:23:28 436.795 MHz FM
Sapphire 17 Apr 03:19:31 03:24:57 78° 311° (NW) 03:30:25 437.095 MHz 1200 baud AX-25 AFSK
ITAMSAT 1 17 Apr 03:25:16 03:30:14 44° 98° (E) 03:35:09 435.822 SSB
KITSAT 1 17 Apr 03:26:59 03:33:28 27° 107° (ESE) 03:39:58 435.175 FM
Oscar 19 17 Apr 03:36:14 03:41:28 89° 106° (ESE) 03:46:41 437.125 CW, 437.150 USB
TMSAT-1 17 Apr 03:41:24 03:45:02 18° 87° (E) 03:48:39 436.925 FM
Oscar 16 17 Apr 03:44:03 03:49:16 77° 289° (WNW) 03:54:28 437.025 USB, Beacon 2401.1428
JAS-1B 17 Apr 03:48:44 03:49:58 11° 79° (E) 03:51:12 435.800 - 435.900 CW/SSB
UOSAT-12 17 Apr 03:54:35 03:59:03 41° 236° (SW) 04:03:28 437.025 FM, 437.400 FM
AO-Echo 17 Apr 03:59:51 04:04:44 69° 103° (ESE) 04:09:28 ?
AO-7 17 Apr 04:00:32 04:03:01 11° 77° (ENE) 04:05:30 29.400 - 29.500 MHz
PCSat 17 Apr 04:05:14 04:10:25 44° 322° (NW) 04:15:38 145.825 MHz
OPAL 17 Apr 04:10:43 04:14:56 26° 265° (W) 04:19:14 ?
Uribyol 2 17 Apr 04:14:22 04:19:34 78° 289° (WNW) 04:24:44 436.500 FM
Uosat F 17 Apr 04:17:12 04:19:47 14° 85° (E) 04:22:21 435.120 FM
Gurwin Techsat 1B 17 Apr 04:30:23 04:35:38 55° 100° (E) 04:40:50 435.225 FM
AO-27 17 Apr 04:53:27 04:58:20 43° 296° (WNW) 05:03:11 436.795 MHz FM
Sapphire 17 Apr 05:04:33 05:09:12 28° 335° (NNW) 05:13:52 437.095 MHz 1200 baud AX-25 AFSK
ITAMSAT 1 17 Apr 05:04:59 05:09:41 36° 298° (WNW) 05:14:23 435.822 SSB
STRAND 1 17 Apr 05:07:17 05:09:57 14° 48° (NE) 05:12:38 ?
Oscar 19 17 Apr 05:16:29 05:20:13 20° 307° (NW) 05:23:57 437.125 CW, 437.150 USB
KITSAT 1 17 Apr 05:19:47 05:27:56 87° 130° (SE) 05:36:07 435.175 FM
TMSAT-1 17 Apr 05:20:20 05:25:41 85° 287° (WNW) 05:30:59 436.925 FM
Oscar 16 17 Apr 05:24:32 05:27:53 18° 309° (NW) 05:31:14 437.025 USB, Beacon 2401.1428
JAS-1B 17 Apr 05:36:22 05:42:09 63° 103° (ESE) 05:47:49 435.800 - 435.900 CW/SSB
AO-Echo 17 Apr 05:39:20 05:43:06 23° 304° (NW) 05:46:47 ?
AO-7 17 Apr 05:50:03 05:58:05 49° 100° (E) 06:06:05 29.400 - 29.500 MHz
PCSat 17 Apr 05:51:02 05:55:11 22° 347° (NNW) 05:59:20 145.825 MHz
Uosat F 17 Apr 05:54:23 05:59:26 79° 105° (ESE) 06:04:26 435.120 FM
Uribyol 2 17 Apr 05:54:58 05:58:19 18° 309° (NW) 06:01:39 436.500 FM
Gurwin Techsat 1B 17 Apr 06:10:46 06:15:23 31° 301° (WNW) 06:20:00 435.225 FM
AO-27 17 Apr 06:35:33 06:36:38 11° 318° (NW) 06:37:42 436.795 MHz FM
STRAND 1 17 Apr 06:43:12 06:48:15 62° 69° (ENE) 06:53:18 ?
Sapphire 17 Apr 06:50:28 06:54:22 20° 1° (N) 06:58:17 437.095 MHz 1200 baud AX-25 AFSK
TMSAT-1 17 Apr 07:01:15 07:04:56 20° 308° (NW) 07:08:36 436.925 FM
Hamsat 17 Apr 07:08:30 07:12:12 27° 93° (E) 07:15:55 145.90 MHz
KITSAT 1 17 Apr 07:16:30 07:24:12 44° 335° (NNW) 07:31:55 435.175 FM
JAS-1B 17 Apr 07:27:39 07:32:31 28° 306° (NW) 07:37:14 435.800 - 435.900 CW/SSB
RS-15 17 Apr 07:32:29 07:42:18 37° 110° (ESE) 07:51:52 29.354 - 29.394 USB, Beacon 29.352 USB
Uosat F 17 Apr 07:33:59 07:37:44 22° 306° (NW) 07:41:28 435.120 FM
MaSat-1 17 Apr 07:34:01 07:36:42 71° 55° (NE) 07:39:45 437.345 MHz
PCSat 17 Apr 07:36:20 07:40:29 22° 13° (NNE) 07:44:37 145.825 MHz
AO-7 17 Apr 07:43:02 07:51:03 55° 303° (WNW) 07:59:03 29.400 - 29.500 MHz
JAS-2 17 Apr 08:16:48 08:21:43 39° 97° (E) 08:26:55 435.800 - 435.900 CW/SSB, 435.910 FM
STRAND 1 17 Apr 08:23:42 08:27:52 25° 268° (W) 08:32:02 ?
Sapphire 17 Apr 08:34:48 08:39:31 29° 26° (NNE) 08:44:13 437.095 MHz 1200 baud AX-25 AFSK
SO-67 17 Apr 08:39:25 08:42:48 43° 99° (E) 08:46:10 435.3500 MHz FM
Hamsat 17 Apr 08:44:15 08:48:23 44° 292° (WNW) 08:52:30 145.90 MHz
HO-68 17 Apr 09:11:19 09:15:37 16° 83° (E) 09:19:53 435.675 MHz FM
KITSAT 1 17 Apr 09:14:24 09:21:41 34° 4° (N) 09:28:58 435.175 FM
PCSat 17 Apr 09:20:02 09:25:15 44° 38° (NE) 09:30:26 145.825 MHz
AO-7 17 Apr 09:36:29 09:42:14 21° 327° (NNW) 09:47:59 29.400 - 29.500 MHz
RS-15 17 Apr 09:42:24 09:53:39 86° 315° (NW) 10:04:40 29.354 - 29.394 USB, Beacon 29.352 USB
JAS-2 17 Apr 10:02:05 10:06:56 40° 297° (WNW) 10:12:03 435.800 - 435.900 CW/SSB, 435.910 FM
Oscar 11 17 Apr 10:12:42 10:15:12 15° 87° (E) 10:17:42 145.825 FM, Beacon 2401.500 USB
SO-67 17 Apr 10:13:08 10:15:44 20° 298° (WNW) 10:18:20 435.3500 MHz FM
Sapphire 17 Apr 10:18:14 10:23:43 83° 50° (NE) 10:29:09 437.095 MHz 1200 baud AX-25 AFSK
HO-68 17 Apr 10:57:32 11:04:44 68° 105° (ESE) 11:11:53 435.675 MHz FM
PCSat 17 Apr 11:03:34 11:08:49 51° 240° (WSW) 11:14:03 145.825 MHz
KITSAT 1 17 Apr 11:11:01 11:18:57 52° 32° (NNE) 11:26:50 435.175 FM
AO-7 17 Apr 11:29:03 11:32:02 12° 354° (N) 11:35:01 29.400 - 29.500 MHz
FUNcube-1 17 Apr 11:30:57 11:34:36 27° 94° (E) 11:38:16 145.950 - 145.970 MHz USB
Oscar 19 17 Apr 11:46:15 11:47:29 11° 43° (NE) 11:48:43 437.125 CW, 437.150 USB
Oscar 11 17 Apr 11:47:37 11:52:00 82° 287° (WNW) 11:56:22 145.825 FM, Beacon 2401.500 USB
Saudisat 1A 17 Apr 11:49:23 11:51:44 14° 112° (ESE) 11:54:05 436.775 MHz
Oscar 16 17 Apr 11:52:59 11:55:10 13° 46° (NE) 11:57:20 437.025 USB, Beacon 2401.1428
RS-15 17 Apr 11:56:44 12:07:24 50° 346° (NNW) 12:18:00 29.354 - 29.394 USB, Beacon 29.352 USB
Sapphire 17 Apr 12:02:26 12:06:34 23° 250° (WSW) 12:10:42 437.095 MHz 1200 baud AX-25 AFSK
Uribyol 2 17 Apr 12:23:51 12:26:10 13° 46° (NE) 12:28:28 436.500 FM
HO-68 17 Apr 12:45:41 12:52:05 37° 307° (NW) 12:58:29 435.675 MHz FM
AO-27 17 Apr 13:00:48 13:04:42 22° 54° (NE) 13:08:36 436.795 MHz FM
KITSAT 1 17 Apr 13:06:42 13:14:43 65° 237° (WSW) 13:22:40 435.175 FM
FUNcube-1 17 Apr 13:07:13 13:11:10 41° 293° (WNW) 13:15:10 145.950 - 145.970 MHz USB
ITAMSAT 1 17 Apr 13:11:45 13:15:55 25° 56° (NE) 13:20:05 435.822 SSB
AO-7 17 Apr 13:17:05 13:21:33 16° 22° (NNE) 13:26:02 29.400 - 29.500 MHz
Oscar 19 17 Apr 13:20:46 13:25:38 44° 64° (ENE) 13:30:32 437.125 CW, 437.150 USB
Oscar 11 17 Apr 13:25:09 13:27:34 15° 306° (NW) 13:29:58 145.825 FM, Beacon 2401.500 USB
Saudisat 1A 17 Apr 13:26:09 13:30:37 74° 132° (SE) 13:35:06 436.775 MHz
Oscar 16 17 Apr 13:28:29 13:33:28 53° 67° (ENE) 13:38:30 437.025 USB, Beacon 2401.1428
TMSAT-1 17 Apr 13:32:14 13:34:24 13° 45° (NE) 13:36:33 436.925 FM
AO-Echo 17 Apr 13:40:59 13:45:34 32° 61° (ENE) 13:50:03 ?
Uribyol 2 17 Apr 13:59:36 14:04:37 54° 67° (ENE) 14:09:40 436.500 FM
RS-15 17 Apr 14:11:33 14:22:14 52° 19° (NNE) 14:32:56 29.354 - 29.394 USB, Beacon 29.352 USB
Gurwin Techsat 1B 17 Apr 14:19:10 14:23:46 31° 59° (ENE) 14:28:22 435.225 FM
HO-68 17 Apr 14:34:45 14:37:54 13° 331° (NNW) 14:41:02 435.675 MHz FM
AO-27 17 Apr 14:38:29 14:43:42 82° 254° (WSW) 14:48:56 436.795 MHz FM
JAS-1B 17 Apr 14:38:31 14:44:37 28° 54° (NE) 14:49:58 435.800 - 435.900 CW/SSB
Oscar 10/S400 17 Apr 14:45:40 15:56:00 20° 262° (W) 18:09:40 145.825 - 145.975 CW/USB, Beacon 145.810 USB
ITAMSAT 1 17 Apr 14:49:51 14:55:02 69° 256° (WSW) 15:00:13 435.822 SSB
Oscar 19 17 Apr 15:00:24 15:05:06 35° 264° (W) 15:09:52 437.125 CW, 437.150 USB
KITSAT 1 17 Apr 15:03:37 15:08:37 18° 260° (W) 15:13:37 435.175 FM
AO-7 17 Apr 15:04:49 15:12:05 36° 48° (NE) 15:19:22 29.400 - 29.500 MHz
Saudisat 1A 17 Apr 15:06:36 15:10:38 32° 333° (NNW) 15:14:40 436.775 MHz
TMSAT-1 17 Apr 15:08:07 15:13:13 51° 66° (ENE) 15:18:21 436.925 FM
Oscar 16 17 Apr 15:08:39 15:13:07 29° 267° (W) 15:17:37 437.025 USB, Beacon 2401.1428
AO-Echo 17 Apr 15:19:06 15:24:11 51° 260° (W) 15:29:11 ?
Uosat F 17 Apr 15:35:56 15:40:33 38° 63° (ENE) 15:45:11 435.120 FM
Uribyol 2 17 Apr 15:39:59 15:44:25 28° 267° (W) 15:48:53 436.500 FM
Gurwin Techsat 1B 17 Apr 15:58:18 16:03:31 56° 259° (W) 16:08:46 435.225 FM
OPAL 17 Apr 16:12:50 16:17:54 49° 102° (ESE) 16:22:57 ?
AO-27 17 Apr 16:21:06 16:24:04 15° 274° (W) 16:27:02 436.795 MHz FM
RS-15 17 Apr 16:24:42 16:35:41 86° 228° (SW) 16:46:50 29.354 - 29.394 USB, Beacon 29.352 USB
JAS-1B 17 Apr 16:26:52 16:34:49 83° 253° (WSW) 16:41:27 435.800 - 435.900 CW/SSB
ITAMSAT 1 17 Apr 16:33:24 16:35:32 12° 277° (W) 16:37:40 435.822 SSB
Saudisat 1A 17 Apr 16:48:07 16:51:27 20° 357° (N) 16:54:46 436.775 MHz
TMSAT-1 17 Apr 16:48:42 16:53:23 32° 266° (W) 16:58:07 436.925 FM
AO-7 17 Apr 16:56:00 17:04:18 80° 251° (WSW) 17:12:39 29.400 - 29.500 MHz
ISS 17 Apr 16:59:43 17:01:13 13° 141° (SE) 17:02:43 145.800 FM
Uosat F 17 Apr 17:14:39 17:19:22 40° 262° (W) 17:24:07 435.120 FM
SO-50 17 Apr 17:16:54 17:21:08 42° 124° (SE) 17:25:25 436.795 FM
OPAL 17 Apr 17:51:59 17:56:40 35° 302° (WNW) 18:01:21 ?
HO-68 17 Apr 18:05:14 18:07:05 11° 24° (NNE) 18:08:56 435.675 MHz FM
Hamsat 17 Apr 18:08:06 18:12:04 42° 67° (ENE) 18:16:06 145.90 MHz
UOSAT-12 17 Apr 18:13:56 18:16:07 13° 110° (ESE) 18:18:19 437.025 FM, 437.400 FM
JAS-1B 17 Apr 18:20:44 18:26:16 21° 272° (W) 18:31:14 435.800 - 435.900 CW/SSB
Saudisat 1A 17 Apr 18:28:33 18:32:22 27° 21° (NNE) 18:36:09 436.775 MHz
ISS 17 Apr 18:34:09 18:37:19 39° 160° (SSE) 18:40:29 145.800 FM
JAS-2 17 Apr 18:36:10 18:41:17 37° 62° (ENE) 18:46:05 435.800 - 435.900 CW/SSB, 435.910 FM
RS-15 17 Apr 18:37:40 18:46:39 31° 254° (WSW) 18:55:49 29.354 - 29.394 USB, Beacon 29.352 USB
STRAND 1 17 Apr 18:49:06 18:51:19 13° 84° (E) 18:53:32 ?
AO-7 17 Apr 18:52:20 18:58:27 22° 273° (W) 19:04:38 29.400 - 29.500 MHz
SO-50 17 Apr 18:57:23 19:01:44 46° 326° (NW) 19:06:08 436.795 FM
SO-67 17 Apr 19:19:13 19:22:32 42° 70° (ENE) 19:25:53 435.3500 MHz FM
Hamsat 17 Apr 19:44:38 19:48:14 27° 267° (W) 19:51:53 145.90 MHz
HO-68 17 Apr 19:46:42 19:52:35 29° 48° (NE) 19:58:29 435.675 MHz FM
UOSAT-12 17 Apr 19:50:53 19:55:27 68° 130° (SE) 20:00:07 437.025 FM, 437.400 FM
Saudisat 1A 17 Apr 20:08:08 20:12:36 80° 44° (NE) 20:17:01 436.775 MHz
ISS 17 Apr 20:10:30 20:13:50 64° 180° (S) 20:17:11 145.800 FM
JAS-2 17 Apr 20:20:56 20:26:25 44° 261° (W) 20:31:30 435.800 - 435.900 CW/SSB, 435.910 FM
STRAND 1 17 Apr 20:26:21 20:31:29 72° 104° (ESE) 20:36:33 ?
SO-50 17 Apr 20:39:45 20:43:19 22° 350° (N) 20:46:56 436.795 FM
SO-67 17 Apr 20:53:20 20:55:54 19° 269° (W) 20:58:30 435.3500 MHz FM
Oscar 11 17 Apr 21:13:38 21:17:14 26° 61° (ENE) 21:20:52 145.825 FM, Beacon 2401.500 USB
UOSAT-12 17 Apr 21:31:41 21:35:58 35° 332° (NNW) 21:40:19 437.025 FM, 437.400 FM
HO-68 17 Apr 21:32:26 21:39:36 88° 250° (WSW) 21:46:49 435.675 MHz FM
ISS 17 Apr 21:47:12 21:50:23 40° 199° (SSW) 21:53:34 145.800 FM
Saudisat 1A 17 Apr 21:48:29 21:51:44 20° 244° (WSW) 21:54:57 436.775 MHz
STRAND 1 17 Apr 22:06:14 22:10:15 24° 304° (NW) 22:14:15 ?
SO-50 17 Apr 22:21:35 22:25:17 24° 14° (NNE) 22:29:02 436.795 FM
FUNcube-1 17 Apr 22:33:43 22:37:46 49° 69° (ENE) 22:41:48 145.950 - 145.970 MHz USB
Oscar 11 17 Apr 22:49:06 22:53:15 47° 261° (W) 22:57:27 145.825 FM, Beacon 2401.500 USB
UOSAT-12 17 Apr 23:13:42 23:17:21 22° 356° (N) 23:21:00 437.025 FM, 437.400 FM
MaSat-1 17 Apr 23:21:39 23:24:22 58° 122° (ESE) 23:26:52 437.345 MHz
HO-68 17 Apr 23:22:54 23:28:19 23° 272° (W) 23:33:47 435.675 MHz FM
ISS 17 Apr 23:24:48 23:26:31 13° 218° (SW) 23:28:13 145.800 FM
SO-50 18 Apr 00:02:14 00:06:46 54° 37° (NE) 00:11:21 436.795 FM
FUNcube-1 18 Apr 00:11:08 00:14:28 23° 268° (W) 00:17:48 145.950 - 145.970 MHz USB
UOSAT-12 18 Apr 00:54:46 00:58:51 28° 21° (NNE) 01:02:57 437.025 FM, 437.400 FM
MaSat-1 18 Apr 01:01:56 01:03:05 12° 321° (NW) 01:04:12 437.345 MHz
Sapphire 18 Apr 01:08:07 01:11:49 19° 107° (ESE) 01:15:32 437.095 MHz 1200 baud AX-25 AFSK
